Time,TemperatureF,DewpointF,PressureIn,WindDirection,WindDirectionDegrees,WindSpeedMPH,WindSpeedGustMPH,Humidity,HourlyPrecipIn,Conditions,Clouds,dailyrainin,SolarRadiationWatts/m^2,SoftwareType,DateUTC
2013-06-07 00:03:00,52.9,50.6,29.98,NE,49,0.0,0.0,92,0.00,RA,,0.00,0.0,WeatherDisplay:10.37,2013-06-07 05:03:00,
2013-06-07 00:08:00,52.9,50.6,29.98,NE,49,0.0,0.0,92,0.00,RA,,0.00,0.0,WeatherDisplay:10.37,2013-06-07 05:08:00,
2013-06-07 00:13:00,52.9,50.6,29.98,NE,49,0.0,0.0,92,0.00,BKN,,0.00,0.0,WeatherDisplay:10.37,2013-06-07 05:13:00,
2013-06-07 00:18:00,52.8,50.5,29.98,NE,49,0.0,0.0,92,0.00,BKN,,0.00,0.0,WeatherDisplay:10.37,2013-06-07 05:18:00,
2013-06-07 00:23:00,52.8,50.5,29.98,NE,49,0.0,0.0,92,0.00,BKN,,0.00,0.0,WeatherDisplay:10.37,2013-06-07 05:23:00,
2013-06-07 00:28:00,52.8,50.5,29.98,NE,49,0.0,0.0,92,0.00,BKN,,0.00,0.0,WeatherDisplay:10.37,2013-06-07 05:28:00,
2013-06-07 00:33:00,52.8,50.8,29.98,NE,49,0.0,0.0,93,0.00,BKN,,0.00,0.0,WeatherDisplay:10.37,2013-06-07 05:33:00,
2013-06-07 00:38:00,52.6,50.6,29.98,NE,49,0.0,0.0,93,0.00,BKN,,0.00,0.0,WeatherDisplay:10.37,2013-06-07 05:38:00,
2013-06-07 00:43:00,52.6,50.6,29.98,NE,49,0.0,0.0,93,0.00,BKN,,0.00,0.0,WeatherDisplay:10.37,2013-06-07 05:43:00,
2013-06-07 00:48:00,52.6,50.6,29.97,NE,49,0.0,0.0,93,0.00,BKN,,0.00,0.0,WeatherDisplay:10.37,2013-06-07 05:48:00,
2013-06-07 00:53:00,52.5,50.5,29.97,NE,49,0.0,0.0,93,0.00,BKN,,0.00,0.0,WeatherDisplay:10.37,2013-06-07 05:53:00,
2013-06-07 00:58:00,52.5,50.8,29.97,NE,49,0.0,0.0,94,0.00,BKN,,0.00,0.0,WeatherDisplay:10.37,2013-06-07 05:58:00,
2013-06-07 01:03:00,52.3,50.6,29.98,NE,49,0.0,0.0,94,0.00,BKN,,0.00,0.0,WeatherDisplay:10.37,2013-06-07 06:03:00,
2013-06-07 01:08:00,52.3,50.6,29.98,NE,49,0.0,0.0,94,0.00,BKN,,0.00,0.0,WeatherDisplay:10.37,2013-06-07 06:08:00,
2013-06-07 01:13:00,52.2,50.5,29.98,NE,49,0.0,0.0,94,0.00,BKN,,0.00,0.0,WeatherDisplay:10.37,2013-06-07 06:13:00,
2013-06-07 01:18:00,52.0,50.3,29.97,NE,49,0.0,0.0,94,0.00,BKN,,0.00,0.0,WeatherDisplay:10.37,2013-06-07 06:18:00,
2013-06-07 01:23:00,51.9,50.2,29.97,NE,49,0.0,0.0,94,0.00,BKN,,0.00,0.0,WeatherDisplay:10.37,2013-06-07 06:23:00,
2013-06-07 01:28:00,51.9,50.2,29.97,NE,49,0.0,0.0,94,0.00,BKN,,0.00,0.0,WeatherDisplay:10.37,2013-06-07 06:28:00,
2013-06-07 01:33:00,51.7,50.0,29.97,NE,49,0.0,0.0,94,0.00,BKN,,0.00,0.0,WeatherDisplay:10.37,2013-06-07 06:33:00,
2013-06-07 01:38:00,51.7,50.0,29.97,NE,49,0.0,0.0,94,0.00,BKN,,0.00,0.0,WeatherDisplay:10.37,2013-06-07 06:38:00,
2013-06-07 01:43:00,51.6,49.9,29.97,NE,49,0.0,0.0,94,0.00,BKN,,0.00,0.0,WeatherDisplay:10.37,2013-06-07 06:43:00,
2013-06-07 01:48:00,51.6,50.2,29.97,NE,49,0.0,0.0,95,0.00,BKN,,0.00,0.0,WeatherDisplay:10.37,2013-06-07 06:48:00,
2013-06-07 01:53:00,51.6,50.2,29.97,NE,49,0.0,0.0,95,0.00,BKN,,0.00,0.0,WeatherDisplay:10.37,2013-06-07 06:53:00,
2013-06-07 01:58:00,51.4,50.0,29.97,NE,49,0.0,0.0,95,0.00,BKN,,0.00,0.0,WeatherDisplay:10.37,2013-06-07 06:58:00,
2013-06-07 02:03:00,51.4,50.0,29.97,NE,49,0.0,0.0,95,0.00,BKN,,0.00,0.0,WeatherDisplay:10.37,2013-06-07 07:03:00,
2013-06-07 02:08:00,51.4,50.0,29.97,NE,49,0.0,0.0,95,0.00,BKN,,0.00,0.0,WeatherDisplay:10.37,2013-06-07 07:08:00,
2013-06-07 02:13:00,51.3,49.9,29.97,NE,49,0.0,0.0,95,0.00,BKN,,0.00,0.0,WeatherDisplay:10.37,2013-06-07 07:13:00,
2013-06-07 02:18:00,51.3,49.9,29.97,NE,49,0.0,0.0,95,0.00,BKN,,0.00,0.0,WeatherDisplay:10.37,2013-06-07 07:18:00,
2013-06-07 02:23:00,51.3,49.9,29.97,NE,49,0.0,0.0,95,0.00,BKN,,0.00,0.0,WeatherDisplay:10.37,2013-06-07 07:23:00,
2013-06-07 02:28:00,51.1,49.7,29.97,NE,49,0.0,0.0,95,0.00,BKN,,0.00,0.0,WeatherDisplay:10.37,2013-06-07 07:28:00,
2013-06-07 02:33:00,51.1,49.7,29.97,NE,49,0.0,0.0,95,0.00,BKN,,0.00,0.0,WeatherDisplay:10.37,2013-06-07 07:33:00,
2013-06-07 02:38:00,51.1,49.7,29.97,NE,49,0.0,0.0,95,0.00,BKN,,0.00,0.0,WeatherDisplay:10.37,2013-06-07 07:38:00,
2013-06-07 02:43:00,51.1,49.7,29.97,NE,49,0.0,0.0,95,0.00,BKN,,0.00,0.0,WeatherDisplay:10.37,2013-06-07 07:43:00,
2013-06-07 02:48:00,51.1,49.7,29.97,NE,49,0.0,0.0,95,0.00,BKN,,0.00,0.0,WeatherDisplay:10.37,2013-06-07 07:48:00,
2013-06-07 02:53:00,51.1,49.7,29.97,NE,49,0.0,0.0,95,0.00,BKN,,0.00,0.0,WeatherDisplay:10.37,2013-06-07 07:53:00,
2013-06-07 02:58:00,51.1,49.7,29.97,NE,49,0.0,0.0,95,0.00,BKN,,0.00,0.0,WeatherDisplay:10.37,2013-06-07 07:58:00,
2013-06-07 03:03:00,51.0,49.3,29.97,NE,49,0.0,0.0,94,0.00,BKN,,0.00,0.0,WeatherDisplay:10.37,2013-06-07 08:03:00,
2013-06-07 03:08:00,51.0,49.3,29.97,NE,49,0.0,0.0,94,0.00,BKN,,0.00,0.0,WeatherDisplay:10.37,2013-06-07 08:08:00,
2013-06-07 03:13:00,51.0,49.3,29.97,NE,49,0.0,0.0,94,0.00,BKN,,0.00,0.0,WeatherDisplay:10.37,2013-06-07 08:13:00,
2013-06-07 03:18:00,51.0,49.3,29.96,NE,49,0.0,0.0,94,0.00,BKN,,0.00,0.0,WeatherDisplay:10.37,2013-06-07 08:18:00,
2013-06-07 03:23:00,51.0,49.3,29.96,NE,49,0.0,0.0,94,0.00,BKN,,0.00,0.0,WeatherDisplay:10.37,2013-06-07 08:23:00,
2013-06-07 03:28:00,51.0,49.3,29.96,NE,49,0.0,0.0,94,0.00,BKN,,0.00,0.0,WeatherDisplay:10.37,2013-06-07 08:28:00,
2013-06-07 03:33:00,51.0,49.3,29.96,NE,49,0.0,0.0,94,0.00,BKN,,0.00,0.0,WeatherDisplay:10.37,2013-06-07 08:33:00,
2013-06-07 03:38:00,51.0,49.3,29.96,NE,49,0.0,0.0,94,0.00,BKN,,0.00,0.0,WeatherDisplay:10.37,2013-06-07 08:38:00,
2013-06-07 03:43:00,51.0,49.3,29.96,NE,49,0.0,0.0,94,0.00,BKN,,0.00,0.0,WeatherDisplay:10.37,2013-06-07 08:43:00,
2013-06-07 03:48:00,51.0,49.3,29.96,NE,49,0.0,0.0,94,0.00,BKN,,0.00,0.0,WeatherDisplay:10.37,2013-06-07 08:48:00,
2013-06-07 03:53:00,51.1,49.4,29.96,NE,49,0.5,2.4,94,0.00,BKN,,0.00,0.0,WeatherDisplay:10.37,2013-06-07 08:53:00,
2013-06-07 03:58:00,51.1,49.4,29.96,NE,49,0.0,0.0,94,0.00,BKN,,0.00,0.0,WeatherDisplay:10.37,2013-06-07 08:58:00,
2013-06-07 04:03:00,51.1,49.4,29.96,NE,49,0.0,0.0,94,0.00,BKN,,0.00,0.0,WeatherDisplay:10.37,2013-06-07 09:03:00,
2013-06-07 04:08:00,51.1,49.4,29.96,NE,49,0.0,0.0,94,0.00,BKN,,0.00,0.0,WeatherDisplay:10.37,2013-06-07 09:08:00,
2013-06-07 04:13:00,51.1,49.4,29.96,NE,49,0.0,0.0,94,0.00,BKN,,0.00,0.0,WeatherDisplay:10.37,2013-06-07 09:13:00,
2013-06-07 04:18:00,51.1,49.4,29.96,NE,49,0.0,0.0,94,0.00,BKN,,0.00,0.0,WeatherDisplay:10.37,2013-06-07 09:18:00,
2013-06-07 04:23:00,51.1,49.4,29.96,NE,49,0.0,0.0,94,0.00,BKN,,0.00,0.0,WeatherDisplay:10.37,2013-06-07 09:23:00,
2013-06-07 04:28:00,51.1,49.4,29.96,NE,49,0.0,0.0,94,0.00,BKN,,0.00,0.0,WeatherDisplay:10.37,2013-06-07 09:28:00,
2013-06-07 04:33:00,51.1,49.4,29.96,NE,49,0.0,0.0,94,0.00,BKN,,0.00,0.0,WeatherDisplay:10.37,2013-06-07 09:33:00,
2013-06-07 04:38:00,51.0,49.3,29.96,NE,49,0.0,0.0,94,0.00,BKN,,0.00,0.0,WeatherDisplay:10.37,2013-06-07 09:38:00,
2013-06-07 04:43:00,51.0,49.3,29.96,NE,49,0.0,0.0,94,0.00,BKN,,0.00,0.0,WeatherDisplay:10.37,2013-06-07 09:43:00,
2013-06-07 04:48:00,51.0,49.3,29.97,NE,49,0.0,0.0,94,0.00,BKN,,0.00,0.0,WeatherDisplay:10.37,2013-06-07 09:48:00,
2013-06-07 04:53:00,51.0,49.3,29.97,NE,49,0.0,0.0,94,0.00,BKN,,0.00,0.0,WeatherDisplay:10.37,2013-06-07 09:53:00,
2013-06-07 04:58:00,51.0,49.3,29.97,NE,49,0.0,0.0,94,0.00,BKN,,0.00,0.0,WeatherDisplay:10.37,2013-06-07 09:58:00,
2013-06-07 05:03:00,51.0,49.3,29.97,NE,49,0.0,0.0,94,0.00,BKN,,0.00,0.0,WeatherDisplay:10.37,2013-06-07 10:03:00,
2013-06-07 05:08:00,50.8,49.1,29.97,NE,49,0.0,1.2,94,0.00,BKN,,0.00,0.0,WeatherDisplay:10.37,2013-06-07 10:08:00,
2013-06-07 05:13:00,50.8,49.1,29.97,NE,49,0.0,1.2,94,0.00,BKN,,0.00,0.0,WeatherDisplay:10.37,2013-06-07 10:13:00,
2013-06-07 05:18:00,51.0,49.3,29.97,NE,49,0.0,0.0,94,0.00,BKN,,0.00,0.0,WeatherDisplay:10.37,2013-06-07 10:18:00,
2013-06-07 05:23:00,50.8,49.1,29.97,NE,49,0.0,0.0,94,0.00,BKN,,0.00,0.0,WeatherDisplay:10.37,2013-06-07 10:23:00,
2013-06-07 05:28:00,50.8,49.1,29.97,NE,49,0.0,0.0,94,0.00,BKN,,0.00,0.0,WeatherDisplay:10.37,2013-06-07 10:28:00,
2013-06-07 05:33:00,50.8,49.1,29.97,NE,49,0.0,0.0,94,0.00,BKN,,0.00,9.0,WeatherDisplay:10.37,2013-06-07 10:33:00,
2013-06-07 05:38:00,50.8,49.1,29.97,NE,49,0.0,0.0,94,0.00,BKN,,0.00,12.0,WeatherDisplay:10.37,2013-06-07 10:38:00,
2013-06-07 05:43:00,50.8,49.1,29.97,NE,49,0.0,0.0,94,0.00,BKN,,0.00,16.0,WeatherDisplay:10.37,2013-06-07 10:43:00,
2013-06-07 05:48:00,50.8,49.4,29.97,NE,49,0.0,0.0,95,0.00,BKN,,0.00,19.0,WeatherDisplay:10.37,2013-06-07 10:48:00,
2013-06-07 05:53:00,51.0,49.6,29.97,NE,49,0.0,1.2,95,0.00,BKN,,0.00,21.0,WeatherDisplay:10.37,2013-06-07 10:53:00,
2013-06-07 05:58:00,51.1,49.7,29.97,NE,49,0.0,0.0,95,0.00,BKN,,0.00,25.0,WeatherDisplay:10.37,2013-06-07 10:58:00,
2013-06-07 06:03:00,51.1,49.7,29.97,NE,49,0.0,0.0,95,0.00,BKN,,0.00,32.0,WeatherDisplay:10.37,2013-06-07 11:03:00,
2013-06-07 06:08:00,51.1,49.7,29.97,NE,49,0.0,1.2,95,0.00,BKN,,0.00,37.0,WeatherDisplay:10.37,2013-06-07 11:08:00,
2013-06-07 06:13:00,51.1,49.7,29.97,NE,49,0.0,1.2,95,0.00,BKN,,0.00,40.0,WeatherDisplay:10.37,2013-06-07 11:13:00,
2013-06-07 06:18:00,51.1,49.7,29.98,NE,49,0.0,0.0,95,0.00,BKN,,0.00,46.0,WeatherDisplay:10.37,2013-06-07 11:18:00,
2013-06-07 06:23:00,51.1,49.7,29.98,NE,49,0.0,0.0,95,0.00,BKN,,0.00,53.0,WeatherDisplay:10.37,2013-06-07 11:23:00,
2013-06-07 06:28:00,51.1,49.7,29.98,NE,49,0.0,0.0,95,0.00,BKN,,0.00,54.0,WeatherDisplay:10.37,2013-06-07 11:28:00,
2013-06-07 06:33:00,51.3,49.9,29.98,NE,49,0.0,0.0,95,0.00,BKN,,0.00,62.0,WeatherDisplay:10.37,2013-06-07 11:33:00,
2013-06-07 06:38:00,51.3,49.9,29.98,NE,49,0.0,0.0,95,0.00,BKN,,0.00,67.0,WeatherDisplay:10.37,2013-06-07 11:38:00,
2013-06-07 06:43:00,51.4,50.0,29.98,NE,49,0.0,0.0,95,0.00,BKN,,0.00,76.0,WeatherDisplay:10.37,2013-06-07 11:43:00,
2013-06-07 06:48:00,51.6,50.2,29.98,NE,49,0.0,0.0,95,0.00,BKN,,0.00,83.0,WeatherDisplay:10.37,2013-06-07 11:48:00,
2013-06-07 06:53:00,51.7,50.3,29.98,NE,49,0.0,0.0,95,0.00,BKN,,0.00,84.0,WeatherDisplay:10.37,2013-06-07 11:53:00,
2013-06-07 06:58:00,51.7,50.3,29.98,NE,49,0.0,0.0,95,0.00,BKN,,0.00,81.0,WeatherDisplay:10.37,2013-06-07 11:58:00,
2013-06-07 07:03:00,51.9,50.5,29.99,NE,49,0.0,0.0,95,0.00,BKN,,0.00,83.0,WeatherDisplay:10.37,2013-06-07 12:03:00,
2013-06-07 07:08:00,51.9,50.5,29.99,NE,49,0.0,0.0,95,0.00,BKN,,0.00,86.0,WeatherDisplay:10.37,2013-06-07 12:08:00,
2013-06-07 07:13:00,52.0,50.3,29.99,NE,49,0.0,0.0,94,0.00,BKN,,0.00,88.0,WeatherDisplay:10.37,2013-06-07 12:13:00,
2013-06-07 07:18:00,52.2,50.5,29.99,NE,49,0.0,1.2,94,0.00,BKN,,0.00,97.0,WeatherDisplay:10.37,2013-06-07 12:18:00,
2013-06-07 07:23:00,52.3,50.6,29.99,NE,49,0.0,0.0,94,0.00,BKN,,0.00,102.0,WeatherDisplay:10.37,2013-06-07 12:23:00,
2013-06-07 07:28:00,52.5,50.8,29.99,NE,49,0.0,0.0,94,0.00,BKN,,0.00,109.0,WeatherDisplay:10.37,2013-06-07 12:28:00,
2013-06-07 07:33:00,52.6,50.6,29.99,NE,49,0.0,0.0,93,0.00,BKN,,0.00,128.0,WeatherDisplay:10.37,2013-06-07 12:33:00,
2013-06-07 07:38:00,52.6,50.6,29.99,NE,49,0.0,0.0,93,0.00,BKN,,0.00,141.0,WeatherDisplay:10.37,2013-06-07 12:38:00,
2013-06-07 07:43:00,52.8,50.5,29.99,NE,49,0.0,1.2,92,0.00,BKN,,0.00,158.0,WeatherDisplay:10.37,2013-06-07 12:43:00,
2013-06-07 07:48:00,53.1,50.8,29.99,NE,49,0.0,0.0,92,0.00,BKN,,0.00,181.0,WeatherDisplay:10.37,2013-06-07 12:48:00,
2013-06-07 07:53:00,53.2,50.6,29.99,NE,49,0.0,1.2,91,0.00,BKN,,0.00,195.0,WeatherDisplay:10.37,2013-06-07 12:53:00,
2013-06-07 07:58:00,53.5,50.6,29.99,NE,49,0.0,0.0,90,0.00,BKN,,0.00,211.0,WeatherDisplay:10.37,2013-06-07 12:58:00,
2013-06-07 08:03:00,53.5,50.0,29.99,NE,49,0.0,1.2,88,0.00,BKN,,0.00,211.0,WeatherDisplay:10.37,2013-06-07 13:03:00,
2013-06-07 08:08:00,53.6,49.8,29.99,NE,49,0.0,1.2,87,0.00,BKN,,0.00,209.0,WeatherDisplay:10.37,2013-06-07 13:08:00,
2013-06-07 08:13:00,53.8,49.7,29.99,NE,49,0.0,0.0,86,0.00,BKN,,0.00,220.0,WeatherDisplay:10.37,2013-06-07 13:13:00,
2013-06-07 08:18:00,54.1,50.0,30.00,NE,49,0.0,0.0,86,0.00,BKN,,0.00,232.0,WeatherDisplay:10.37,2013-06-07 13:18:00,
2013-06-07 08:23:00,54.4,49.7,30.00,NE,49,0.0,0.0,84,0.00,BKN,,0.00,243.0,WeatherDisplay:10.37,2013-06-07 13:23:00,
2013-06-07 08:28:00,54.7,50.0,30.00,NE,49,0.0,0.0,84,0.00,BKN,,0.00,255.0,WeatherDisplay:10.37,2013-06-07 13:28:00,
2013-06-07 08:33:00,55.0,50.3,30.00,NE,49,0.0,0.0,84,0.00,BKN,,0.00,265.0,WeatherDisplay:10.37,2013-06-07 13:33:00,
2013-06-07 08:38:00,55.1,49.7,30.00,NE,49,0.0,0.0,82,0.00,BKN,,0.00,272.0,WeatherDisplay:10.37,2013-06-07 13:38:00,
2013-06-07 08:43:00,55.4,49.3,30.00,NE,49,0.0,0.0,80,0.00,BKN,,0.00,279.0,WeatherDisplay:10.37,2013-06-07 13:43:00,
2013-06-07 08:48:00,55.6,49.5,30.00,NE,49,0.0,0.0,80,0.00,BKN,,0.00,309.0,WeatherDisplay:10.37,2013-06-07 13:48:00,
2013-06-07 08:53:00,55.7,49.3,30.00,NE,49,0.0,0.0,79,0.00,SCT,,0.00,332.0,WeatherDisplay:10.37,2013-06-07 13:53:00,
2013-06-07 08:58:00,55.9,49.1,30.00,NE,49,0.1,1.2,78,0.00,SCT,,0.00,462.0,WeatherDisplay:10.37,2013-06-07 13:58:00,
2013-06-07 09:03:00,56.0,48.9,30.00,NE,49,0.0,0.0,77,0.00,SCT,,0.00,438.0,WeatherDisplay:10.37,2013-06-07 14:03:00,
2013-06-07 09:08:00,56.5,49.4,30.00,NE,49,0.0,1.2,77,0.00,SCT,,0.00,420.0,WeatherDisplay:10.37,2013-06-07 14:08:00,
2013-06-07 09:13:00,56.7,49.6,30.00,NE,49,0.0,0.0,77,0.00,SCT,,0.00,543.0,WeatherDisplay:10.37,2013-06-07 14:13:00,
2013-06-07 09:18:00,57.2,49.7,30.00,NE,49,0.0,0.0,76,0.00,SCT,,0.00,490.0,WeatherDisplay:10.37,2013-06-07 14:18:00,
2013-06-07 09:23:00,57.6,49.4,30.00,NE,46,0.0,1.2,74,0.00,SCT,,0.00,443.0,WeatherDisplay:10.37,2013-06-07 14:23:00,
2013-06-07 09:28:00,58.0,50.1,30.00,NE,46,0.0,0.0,75,0.00,SCT,,0.00,526.0,WeatherDisplay:10.37,2013-06-07 14:28:00,
2013-06-07 09:33:00,58.6,50.3,30.00,NE,46,0.0,0.0,74,0.00,SCT,,0.00,475.0,WeatherDisplay:10.37,2013-06-07 14:33:00,
2013-06-07 09:38:00,59.0,50.4,30.00,NE,46,0.0,0.0,73,0.00,SCT,,0.00,429.0,WeatherDisplay:10.37,2013-06-07 14:38:00,
2013-06-07 09:43:00,59.2,50.5,30.00,NE,46,0.0,1.2,73,0.00,SCT,,0.00,415.0,WeatherDisplay:10.37,2013-06-07 14:43:00,
2013-06-07 09:48:00,59.6,50.2,30.00,NE,46,0.0,1.2,71,0.00,BKN,,0.00,425.0,WeatherDisplay:10.37,2013-06-07 14:48:00,
2013-06-07 09:53:00,59.5,50.5,30.00,NE,46,0.0,1.2,72,0.00,SCT,,0.00,459.0,WeatherDisplay:10.37,2013-06-07 14:53:00,
2013-06-07 09:58:00,59.5,50.8,30.00,NE,46,0.0,0.0,73,0.00,SCT,,0.00,448.0,WeatherDisplay:10.37,2013-06-07 14:58:00,
2013-06-07 10:03:00,59.6,49.8,30.00,NE,46,0.0,0.0,70,0.00,SCT,,0.00,452.0,WeatherDisplay:10.37,2013-06-07 15:03:00,
2013-06-07 10:08:00,59.8,50.4,30.00,NE,46,0.0,0.0,71,0.00,BKN,,0.00,380.0,WeatherDisplay:10.37,2013-06-07 15:08:00,
2013-06-07 10:13:00,59.8,50.0,30.00,NE,46,0.0,1.2,70,0.00,BKN,,0.00,413.0,WeatherDisplay:10.37,2013-06-07 15:13:00,
2013-06-07 10:18:00,59.6,50.2,30.00,NE,46,0.0,0.0,71,0.00,BKN,,0.00,508.0,WeatherDisplay:10.37,2013-06-07 15:18:00,
2013-06-07 10:23:00,59.8,50.4,30.00,NE,46,0.0,1.2,71,0.00,BKN,,0.00,454.0,WeatherDisplay:10.37,2013-06-07 15:23:00,
2013-06-07 10:28:00,59.9,50.8,30.00,NE,46,0.0,0.0,72,0.00,SCT,,0.00,566.0,WeatherDisplay:10.37,2013-06-07 15:28:00,
2013-06-07 10:33:00,60.2,50.8,30.00,NE,46,0.1,1.2,71,0.00,SCT,,0.00,490.0,WeatherDisplay:10.37,2013-06-07 15:33:00,
2013-06-07 10:38:00,60.1,50.7,30.00,NE,47,0.0,1.2,71,0.00,SCT,,0.00,529.0,WeatherDisplay:10.37,2013-06-07 15:38:00,
2013-06-07 10:43:00,60.5,51.0,30.00,NE,47,0.0,1.2,71,0.00,SCT,,0.00,543.0,WeatherDisplay:10.37,2013-06-07 15:43:00,
2013-06-07 10:48:00,60.7,50.5,30.00,NE,47,0.0,0.0,69,0.00,SCT,,0.00,526.0,WeatherDisplay:10.37,2013-06-07 15:48:00,
2013-06-07 10:53:00,60.7,50.5,30.00,NE,38,0.0,1.2,69,0.00,SCT,,0.00,621.0,WeatherDisplay:10.37,2013-06-07 15:53:00,
2013-06-07 10:58:00,60.9,50.3,30.00,NE,38,0.0,1.2,68,0.00,SCT,,0.00,766.0,WeatherDisplay:10.37,2013-06-07 15:58:00,
2013-06-07 11:03:00,61.5,50.0,30.00,NE,38,0.0,1.2,66,0.00,FEW,,0.00,830.0,WeatherDisplay:10.37,2013-06-07 16:03:00,
2013-06-07 11:08:00,62.1,50.6,30.00,NE,35,0.0,1.2,66,0.00,FEW,,0.00,940.0,WeatherDisplay:10.37,2013-06-07 16:08:00,
2013-06-07 11:13:00,62.4,50.5,30.00,WNW,288,0.0,1.2,65,0.00,FEW,,0.00,888.0,WeatherDisplay:10.37,2013-06-07 16:13:00,
2013-06-07 11:18:00,63.1,51.6,30.00,ESE,111,0.0,0.0,66,0.00,FEW,,0.00,895.0,WeatherDisplay:10.37,2013-06-07 16:18:00,
2013-06-07 11:23:00,63.4,51.0,30.00,ENE,74,0.0,1.2,64,0.00,FEW,,0.00,974.0,WeatherDisplay:10.37,2013-06-07 16:23:00,
2013-06-07 11:28:00,64.2,50.9,30.00,ENE,70,0.0,0.0,62,0.00,CLR,,0.00,946.0,WeatherDisplay:10.37,2013-06-07 16:28:00,
2013-06-07 11:33:00,64.8,51.5,30.00,NW,312,0.3,2.3,62,0.00,CLR,,0.00,1130.0,WeatherDisplay:10.37,2013-06-07 16:33:00,
2013-06-07 11:38:00,63.2,50.4,30.00,South,184,0.1,1.2,63,0.00,FEW,,0.00,1102.0,WeatherDisplay:10.37,2013-06-07 16:38:00,
2013-06-07 11:43:00,64.3,50.1,30.00,WSW,238,0.0,0.0,60,0.00,SCT,,0.00,571.0,WeatherDisplay:10.37,2013-06-07 16:43:00,
2013-06-07 11:48:00,64.5,48.9,29.99,NE,52,0.3,4.6,57,0.00,SCT,,0.00,1027.0,WeatherDisplay:10.37,2013-06-07 16:48:00,
2013-06-07 11:53:00,65.0,49.4,29.99,ENE,58,2.5,6.0,57,0.00,CLR,,0.00,886.0,WeatherDisplay:10.37,2013-06-07 16:53:00,
2013-06-07 11:58:00,65.8,50.6,29.99,NE,36,0.0,0.0,58,0.00,CLR,,0.00,1141.0,WeatherDisplay:10.37,2013-06-07 16:58:00,
2013-06-07 12:03:00,66.8,50.1,29.99,North,5,0.1,1.2,55,0.00,CLR,,0.00,765.0,WeatherDisplay:10.37,2013-06-07 17:03:00,
2013-06-07 12:08:00,66.8,51.1,29.99,NNE,19,0.0,1.2,57,0.00,BKN,,0.00,538.0,WeatherDisplay:10.37,2013-06-07 17:08:00,
2013-06-07 12:13:00,66.8,50.1,29.99,ENE,60,0.0,1.2,55,0.00,BKN,,0.00,575.0,WeatherDisplay:10.37,2013-06-07 17:13:00,
2013-06-07 12:18:00,66.0,49.4,29.99,NE,44,0.4,3.5,55,0.00,BKN,,0.00,575.0,WeatherDisplay:10.37,2013-06-07 17:18:00,
2013-06-07 12:23:00,66.0,49.8,29.99,NNW,331,0.9,3.6,56,0.00,SCT,,0.00,997.0,WeatherDisplay:10.37,2013-06-07 17:23:00,
2013-06-07 12:28:00,66.4,51.2,29.99,NNW,345,0.1,1.2,58,0.00,CLR,,0.00,1190.0,WeatherDisplay:10.37,2013-06-07 17:28:00,
2013-06-07 12:33:00,66.4,50.7,29.99,NNW,348,0.0,1.2,57,0.00,FEW,,0.00,577.0,WeatherDisplay:10.37,2013-06-07 17:33:00,
2013-06-07 12:38:00,66.3,50.1,29.99,North,5,1.6,6.0,56,0.00,BKN,,0.00,380.0,WeatherDisplay:10.37,2013-06-07 17:38:00,
2013-06-07 12:43:00,66.4,51.2,29.99,North,5,0.0,0.0,58,0.00,BKN,,0.00,399.0,WeatherDisplay:10.37,2013-06-07 17:43:00,
2013-06-07 12:48:00,66.3,51.1,29.98,NE,50,0.1,2.3,58,0.00,BKN,,0.00,531.0,WeatherDisplay:10.37,2013-06-07 17:48:00,
2013-06-07 12:53:00,66.4,50.2,29.98,East,97,2.2,6.0,56,0.00,SCT,,0.00,1106.0,WeatherDisplay:10.37,2013-06-07 17:53:00,
2013-06-07 12:58:00,66.8,51.1,29.98,ENE,67,0.1,1.2,57,0.00,SCT,,0.00,522.0,WeatherDisplay:10.37,2013-06-07 17:58:00,
2013-06-07 13:03:00,67.1,50.9,29.97,East,88,0.0,1.2,56,0.00,SCT,,0.00,1011.0,WeatherDisplay:10.37,2013-06-07 18:03:00,
2013-06-07 13:08:00,67.3,51.5,29.97,ENE,71,0.0,0.0,57,0.00,FEW,,0.00,986.0,WeatherDisplay:10.37,2013-06-07 18:08:00,
2013-06-07 13:14:00,67.6,50.9,29.97,NNW,341,0.0,1.2,55,0.00,FEW,,0.00,976.0,WeatherDisplay:10.37,2013-06-07 18:14:00,
2013-06-07 13:19:00,68.8,52.5,29.97,NE,42,0.0,0.0,56,0.00,FEW,,0.00,963.0,WeatherDisplay:10.37,2013-06-07 18:19:00,
2013-06-07 13:24:00,69.1,51.2,29.97,NNE,14,0.2,1.2,53,0.00,FEW,,0.00,963.0,WeatherDisplay:10.37,2013-06-07 18:24:00,
2013-06-07 13:30:00,69.3,50.9,29.97,WNW,284,0.0,0.0,52,0.00,FEW,,0.00,1002.0,WeatherDisplay:10.37,2013-06-07 18:30:00,
2013-06-07 13:35:00,69.3,51.4,29.97,North,360,0.0,1.2,53,0.00,FEW,,0.00,997.0,WeatherDisplay:10.37,2013-06-07 18:35:00,
2013-06-07 13:40:00,68.4,51.1,29.97,ENE,67,0.3,2.4,54,0.00,FEW,,0.00,1060.0,WeatherDisplay:10.37,2013-06-07 18:40:00,
2013-06-07 13:45:00,68.6,51.3,29.97,ENE,64,0.1,1.2,54,0.00,SCT,,0.00,330.0,WeatherDisplay:10.37,2013-06-07 18:45:00,
2013-06-07 13:50:00,68.6,50.3,29.97,ENE,74,0.0,3.5,52,0.00,BKN,,0.00,274.0,WeatherDisplay:10.37,2013-06-07 18:50:00,
2013-06-07 13:55:00,68.6,51.3,29.97,ENE,74,0.0,0.0,54,0.00,BKN,,0.00,343.0,WeatherDisplay:10.37,2013-06-07 18:55:00,
2013-06-07 14:00:00,68.8,50.5,29.97,ENE,74,0.0,0.0,52,0.00,BKN,,0.00,348.0,WeatherDisplay:10.37,2013-06-07 19:00:00,
2013-06-07 14:05:00,68.4,50.1,29.97,ENE,74,0.0,0.0,52,0.00,SCT,,0.00,1067.0,WeatherDisplay:10.37,2013-06-07 19:05:00,
2013-06-07 14:10:00,68.3,51.5,29.97,NW,307,0.0,0.0,55,0.00,CLR,,0.00,1063.0,WeatherDisplay:10.37,2013-06-07 19:10:00,
2013-06-07 14:15:00,69.4,50.5,29.97,NE,51,1.0,3.6,51,0.00,CLR,,0.00,438.0,WeatherDisplay:10.37,2013-06-07 19:15:00,
2013-06-07 14:20:00,69.1,51.2,29.97,NW,306,0.0,1.2,53,0.00,BKN,,0.00,441.0,WeatherDisplay:10.37,2013-06-07 19:20:00,
2013-06-07 14:26:00,69.3,52.4,29.97,NW,306,0.0,1.2,55,0.00,BKN,,0.00,1127.0,WeatherDisplay:10.37,2013-06-07 19:26:00,
2013-06-07 14:32:00,69.8,51.9,29.96,NW,311,0.0,0.0,53,0.00,CLR,,0.00,357.0,WeatherDisplay:10.37,2013-06-07 19:32:00,
2013-06-07 14:37:00,69.9,52.0,29.96,NW,312,0.0,0.0,53,0.00,BKN,,0.00,302.0,WeatherDisplay:10.37,2013-06-07 19:37:00,
2013-06-07 14:42:00,69.9,52.0,29.96,NW,312,0.0,1.2,53,0.00,BKN,,0.00,253.0,WeatherDisplay:10.37,2013-06-07 19:42:00,
2013-06-07 14:47:00,69.6,52.2,29.95,NW,312,0.0,0.0,54,0.00,BKN,,0.00,229.0,WeatherDisplay:10.37,2013-06-07 19:47:00,
2013-06-07 14:52:00,68.9,51.1,29.95,NW,312,0.1,1.2,53,0.00,BKN,,0.00,223.0,WeatherDisplay:10.37,2013-06-07 19:52:00,
2013-06-07 14:57:00,68.6,50.8,29.95,NW,312,0.1,1.2,53,0.00,BKN,,0.00,223.0,WeatherDisplay:10.37,2013-06-07 19:57:00,
2013-06-07 15:02:00,69.8,52.4,29.95,NW,312,0.0,1.2,54,0.00,SCT,,0.00,283.0,WeatherDisplay:10.37,2013-06-07 20:02:00,
2013-06-07 15:07:00,70.3,50.2,29.95,East,87,0.4,2.4,49,0.00,BKN,,0.00,304.0,WeatherDisplay:10.37,2013-06-07 20:07:00,
2013-06-07 15:12:00,70.3,51.8,29.95,East,86,0.0,0.0,52,0.00,SCT,,0.00,309.0,WeatherDisplay:10.37,2013-06-07 20:12:00,
2013-06-07 15:18:00,70.8,51.2,29.95,East,88,0.1,1.2,50,0.00,BKN,,0.00,309.0,WeatherDisplay:10.37,2013-06-07 20:18:00,
2013-06-07 15:23:00,69.8,50.9,29.95,ENE,63,1.1,3.6,51,0.00,BKN,,0.00,309.0,WeatherDisplay:10.37,2013-06-07 20:23:00,
2013-06-07 15:28:00,68.9,51.6,29.95,ENE,78,0.0,3.5,54,0.00,BKN,,0.00,227.0,WeatherDisplay:10.37,2013-06-07 20:28:00,
2013-06-07 15:33:00,68.6,50.8,29.95,ENE,78,0.0,1.2,53,0.00,BKN,,0.00,241.0,WeatherDisplay:10.37,2013-06-07 20:33:00,
2013-06-07 15:38:00,68.6,51.8,29.95,ENE,78,0.1,1.2,55,0.00,BKN,,0.00,274.0,WeatherDisplay:10.37,2013-06-07 20:38:00,
2013-06-07 15:44:00,68.9,51.1,29.95,ENE,78,0.0,1.2,53,0.00,BKN,,0.00,281.0,WeatherDisplay:10.37,2013-06-07 20:44:00,
2013-06-07 15:49:00,68.4,50.6,29.95,ENE,78,0.0,1.2,53,0.00,BKN,,0.00,246.0,WeatherDisplay:10.37,2013-06-07 20:49:00,
2013-06-07 15:54:00,68.4,52.1,29.95,ENE,78,0.0,0.0,56,0.00,BKN,,0.00,227.0,WeatherDisplay:10.37,2013-06-07 20:54:00,
2013-06-07 15:59:00,68.4,51.6,29.95,ENE,78,0.0,0.0,55,0.00,BKN,,0.00,218.0,WeatherDisplay:10.37,2013-06-07 20:59:00,
2013-06-07 16:04:00,68.4,51.1,29.95,ENE,78,0.0,0.0,54,0.00,BKN,,0.00,269.0,WeatherDisplay:10.37,2013-06-07 21:04:00,
2013-06-07 16:09:00,68.4,51.1,29.95,ENE,78,0.0,0.0,54,0.00,BKN,,0.00,394.0,WeatherDisplay:10.37,2013-06-07 21:09:00,
2013-06-07 16:14:00,68.8,51.0,29.94,ENE,78,0.0,0.0,53,0.00,BKN,,0.00,302.0,WeatherDisplay:10.37,2013-06-07 21:14:00,
2013-06-07 16:19:00,69.3,51.4,29.94,ENE,78,0.0,1.2,53,0.00,BKN,,0.00,308.0,WeatherDisplay:10.37,2013-06-07 21:19:00,
2013-06-07 16:25:00,69.1,51.2,29.94,West,261,0.0,0.0,53,0.00,BKN,,0.00,285.0,WeatherDisplay:10.37,2013-06-07 21:25:00,
2013-06-07 16:30:00,68.8,51.0,29.94,West,261,0.0,0.0,53,0.00,BKN,,0.00,267.0,WeatherDisplay:10.37,2013-06-07 21:30:00,
2013-06-07 16:35:00,69.1,51.2,29.94,West,261,0.0,0.0,53,0.00,BKN,,0.00,253.0,WeatherDisplay:10.37,2013-06-07 21:35:00,
2013-06-07 16:40:00,68.9,50.5,29.94,West,261,0.0,0.0,52,0.00,BKN,,0.00,239.0,WeatherDisplay:10.37,2013-06-07 21:40:00,
2013-06-07 16:46:00,68.9,50.5,29.94,West,261,0.0,0.0,52,0.00,BKN,,0.00,260.0,WeatherDisplay:10.37,2013-06-07 21:46:00,
2013-06-07 16:51:00,69.1,50.7,29.94,West,261,0.0,0.0,52,0.00,SCT,,0.00,735.0,WeatherDisplay:10.37,2013-06-07 21:51:00,
2013-06-07 16:56:00,69.3,49.9,29.94,West,261,0.0,0.0,50,0.00,BKN,,0.00,255.0,WeatherDisplay:10.37,2013-06-07 21:56:00,
2013-06-07 17:01:00,68.9,49.5,29.93,SW,225,0.0,1.2,50,0.00,BKN,,0.00,230.0,WeatherDisplay:10.37,2013-06-07 22:01:00,
2013-06-07 17:07:00,68.4,50.1,29.93,SW,225,0.0,0.0,52,0.00,BKN,,0.00,213.0,WeatherDisplay:10.37,2013-06-07 22:07:00,
2013-06-07 17:12:00,68.8,51.0,29.93,SW,225,0.0,0.0,53,0.00,BKN,,0.00,250.0,WeatherDisplay:10.37,2013-06-07 22:12:00,
2013-06-07 17:17:00,69.3,51.4,29.93,SW,225,0.0,0.0,53,0.00,BKN,,0.00,213.0,WeatherDisplay:10.37,2013-06-07 22:17:00,
2013-06-07 17:22:00,69.4,52.5,29.93,SW,220,0.0,1.0,55,0.00,BKN,,0.00,165.0,WeatherDisplay:10.37,2013-06-07 22:22:00,
2013-06-07 17:27:00,69.3,51.9,29.93,South,187,0.0,1.2,54,0.00,BKN,,0.00,139.0,WeatherDisplay:10.37,2013-06-07 22:27:00,
2013-06-07 17:32:00,68.8,52.5,29.93,East,86,0.0,2.3,56,0.00,BKN,,0.00,134.0,WeatherDisplay:10.37,2013-06-07 22:32:00,
2013-06-07 17:37:00,68.1,52.3,29.93,East,92,0.0,4.6,57,0.00,BKN,,0.00,134.0,WeatherDisplay:10.37,2013-06-07 22:37:00,
2013-06-07 17:42:00,67.9,52.6,29.93,East,91,0.0,1.2,58,0.00,BKN,,0.00,113.0,WeatherDisplay:10.37,2013-06-07 22:42:00,
2013-06-07 17:49:00,67.6,51.8,29.93,East,94,3.2,4.8,57,0.00,BKN,,0.00,91.0,WeatherDisplay:10.37,2013-06-07 22:49:00,
2013-06-07 17:54:00,67.3,52.5,29.93,East,84,1.6,4.8,59,0.00,BKN,,0.00,77.0,WeatherDisplay:10.37,2013-06-07 22:54:00,
2013-06-07 17:59:00,66.9,52.1,29.93,East,86,0.8,3.6,59,0.00,BKN,,0.00,67.0,WeatherDisplay:10.37,2013-06-07 22:59:00,
2013-06-07 18:05:00,66.8,52.5,29.92,East,86,0.0,0.0,60,0.00,BKN,,0.00,54.0,WeatherDisplay:10.37,2013-06-07 23:05:00,
2013-06-07 18:10:00,66.8,52.5,29.92,ENE,74,0.0,1.2,60,0.00,BKN,,0.00,49.0,WeatherDisplay:10.37,2013-06-07 23:10:00,
2013-06-07 18:15:00,66.8,52.9,29.92,ENE,71,0.0,0.0,61,0.00,BKN,,0.00,46.0,WeatherDisplay:10.37,2013-06-07 23:15:00,
2013-06-07 18:20:00,66.6,52.3,29.92,ENE,74,0.0,0.0,60,0.00,BKN,,0.00,40.0,WeatherDisplay:10.37,2013-06-07 23:20:00,
2013-06-07 18:26:00,66.4,52.1,29.92,ENE,74,0.2,2.4,60,0.00,BKN,,0.00,42.0,WeatherDisplay:10.37,2013-06-07 23:26:00,
2013-06-07 18:31:00,66.3,52.4,29.92,ENE,74,0.0,0.0,61,0.00,BKN,,0.00,42.0,WeatherDisplay:10.37,2013-06-07 23:31:00,
2013-06-07 18:36:00,66.1,52.7,29.92,East,92,0.1,1.2,62,0.00,BKN,,0.00,46.0,WeatherDisplay:10.37,2013-06-07 23:36:00,
2013-06-07 18:41:00,66.1,52.7,29.92,East,93,0.0,4.8,62,0.00,BKN,,0.00,51.0,WeatherDisplay:10.37,2013-06-07 23:41:00,
2013-06-07 18:46:00,66.1,52.7,29.92,East,93,0.0,0.0,62,0.00,BKN,,0.00,102.0,WeatherDisplay:10.37,2013-06-07 23:46:00,
2013-06-07 18:52:00,66.3,53.3,29.92,ESE,104,0.0,5.0,63,0.00,BKN,,0.00,230.0,WeatherDisplay:10.37,2013-06-07 23:52:00,
2013-06-07 18:57:00,66.6,53.2,29.92,ESE,113,0.0,1.0,62,0.00,BKN,,0.00,69.0,WeatherDisplay:10.37,2013-06-07 23:57:00,
2013-06-07 19:02:00,66.8,53.4,29.92,ESE,113,0.0,0.0,62,0.00,BKN,,0.00,58.0,WeatherDisplay:10.37,2013-06-08 00:02:00,
2013-06-07 19:07:00,66.8,53.8,29.92,ESE,112,0.0,0.0,63,0.00,BKN,,0.00,54.0,WeatherDisplay:10.37,2013-06-08 00:07:00,
2013-06-07 19:18:00,66.3,53.3,29.93,East,99,0.0,1.2,63,0.00,BKN,,0.00,47.0,WeatherDisplay:10.37,2013-06-08 00:18:00,
2013-06-07 19:23:00,66.1,53.6,29.93,East,99,0.0,0.0,64,0.00,BKN,,0.00,49.0,WeatherDisplay:10.37,2013-06-08 00:23:00,
2013-06-07 19:28:00,66.0,54.3,29.93,East,99,0.0,0.0,66,0.00,BKN,,0.00,47.0,WeatherDisplay:10.37,2013-06-08 00:28:00,
2013-06-07 19:34:00,65.8,53.7,29.92,East,99,0.0,0.0,65,0.00,BKN,,0.00,46.0,WeatherDisplay:10.37,2013-06-08 00:34:00,
2013-06-07 19:39:00,65.8,54.1,29.92,East,99,0.0,0.0,66,0.00,BKN,,0.00,44.0,WeatherDisplay:10.37,2013-06-08 00:39:00,
2013-06-07 19:44:00,65.6,54.3,29.92,East,99,0.0,0.0,67,0.00,BKN,,0.00,44.0,WeatherDisplay:10.37,2013-06-08 00:44:00,
2013-06-07 19:49:00,65.3,54.1,29.92,East,99,0.0,0.0,67,0.00,BKN,,0.00,39.0,WeatherDisplay:10.37,2013-06-08 00:49:00,
2013-06-07 19:55:00,65.2,54.0,29.92,East,99,0.0,0.0,67,0.00,BKN,,0.00,30.0,WeatherDisplay:10.37,2013-06-08 00:55:00,
2013-06-07 20:01:00,65.2,54.4,29.93,East,99,0.0,0.0,68,0.00,BKN,,0.00,18.0,WeatherDisplay:10.37,2013-06-08 01:01:00,
2013-06-07 20:06:00,65.0,54.2,29.93,East,99,0.0,0.0,68,0.00,BKN,,0.00,14.0,WeatherDisplay:10.37,2013-06-08 01:06:00,
2013-06-07 20:12:00,64.8,54.0,29.93,East,99,0.0,0.0,68,0.00,BKN,,0.00,11.0,WeatherDisplay:10.37,2013-06-08 01:12:00,
2013-06-07 20:17:00,64.7,53.9,29.92,East,99,0.0,0.0,68,0.00,BKN,,0.00,11.0,WeatherDisplay:10.37,2013-06-08 01:17:00,
2013-06-07 20:22:00,64.7,53.9,29.92,East,99,0.0,0.0,68,0.00,BKN,,0.00,7.0,WeatherDisplay:10.37,2013-06-08 01:22:00,
2013-06-07 20:27:00,64.5,54.1,29.92,East,99,0.0,0.0,69,0.00,BKN,,0.00,5.0,WeatherDisplay:10.37,2013-06-08 01:27:00,
2013-06-07 20:32:00,64.3,54.3,29.92,East,99,0.0,0.0,70,0.00,BKN,,0.00,0.0,WeatherDisplay:10.37,2013-06-08 01:32:00,
2013-06-07 20:37:00,64.2,54.2,29.92,East,99,0.0,0.0,70,0.00,BKN,,0.00,0.0,WeatherDisplay:10.37,2013-06-08 01:37:00,
2013-06-07 20:42:00,64.0,54.4,29.92,East,99,0.0,0.0,71,0.00,BKN,,0.00,0.0,WeatherDisplay:10.37,2013-06-08 01:42:00,
2013-06-07 20:47:00,63.9,54.3,29.92,East,99,0.0,0.0,71,0.00,BKN,,0.00,0.0,WeatherDisplay:10.37,2013-06-08 01:47:00,
2013-06-07 20:53:00,63.7,54.1,29.92,East,99,0.0,0.0,71,0.00,BKN,,0.00,0.0,WeatherDisplay:10.37,2013-06-08 01:53:00,
2013-06-07 20:58:00,63.7,54.5,29.92,East,99,0.0,0.0,72,0.00,BKN,,0.00,0.0,WeatherDisplay:10.37,2013-06-08 01:58:00,
2013-06-07 21:03:00,63.4,54.6,29.92,East,99,0.0,0.0,73,0.00,BKN,,0.00,0.0,WeatherDisplay:10.37,2013-06-08 02:03:00,
2013-06-07 21:08:00,63.2,54.8,29.92,East,99,0.0,0.0,74,0.00,BKN,,0.00,0.0,WeatherDisplay:10.37,2013-06-08 02:08:00,
2013-06-07 21:13:00,62.9,54.9,29.92,East,99,0.0,0.0,75,0.00,BKN,,0.00,0.0,WeatherDisplay:10.37,2013-06-08 02:13:00,
2013-06-07 21:18:00,62.6,55.3,29.93,East,99,0.0,0.0,77,0.00,BKN,,0.00,0.0,WeatherDisplay:10.37,2013-06-08 02:18:00,
2013-06-07 21:24:00,62.1,54.4,29.93,East,99,0.0,0.0,76,0.00,BKN,,0.00,0.0,WeatherDisplay:10.37,2013-06-08 02:24:00,
2013-06-07 21:29:00,62.0,54.7,29.93,East,99,0.0,0.0,77,0.00,BKN,,0.00,0.0,WeatherDisplay:10.37,2013-06-08 02:29:00,
2013-06-07 21:34:00,61.6,54.7,29.93,East,99,0.0,0.0,78,0.00,BKN,,0.00,0.0,WeatherDisplay:10.37,2013-06-08 02:34:00,
2013-06-07 21:39:00,61.5,54.9,29.93,East,99,0.0,0.0,79,0.00,BKN,,0.00,0.0,WeatherDisplay:10.37,2013-06-08 02:39:00,
2013-06-07 21:44:00,61.3,55.1,29.93,East,99,0.0,0.0,80,0.00,BKN,,0.00,0.0,WeatherDisplay:10.37,2013-06-08 02:44:00,
2013-06-07 21:49:00,61.0,54.8,29.93,East,99,0.0,0.0,80,0.00,BKN,,0.00,0.0,WeatherDisplay:10.37,2013-06-08 02:49:00,
2013-06-07 21:54:00,60.9,55.0,29.93,East,99,0.0,0.0,81,0.00,BKN,,0.00,0.0,WeatherDisplay:10.37,2013-06-08 02:54:00,
2013-06-07 21:59:00,60.7,55.2,29.93,East,99,0.0,0.0,82,0.00,BKN,,0.00,0.0,WeatherDisplay:10.37,2013-06-08 02:59:00,
2013-06-07 22:05:00,60.4,55.2,29.93,East,99,0.0,0.0,83,0.00,BKN,,0.00,0.0,WeatherDisplay:10.37,2013-06-08 03:05:00,
2013-06-07 22:10:00,60.2,55.0,29.93,East,99,0.0,0.0,83,0.00,BKN,,0.00,0.0,WeatherDisplay:10.37,2013-06-08 03:10:00,
2013-06-07 22:16:00,60.1,55.2,29.93,East,99,0.0,0.0,84,0.00,BKN,,0.00,0.0,WeatherDisplay:10.37,2013-06-08 03:16:00,
2013-06-07 22:21:00,59.9,55.1,29.93,East,99,0.0,0.0,84,0.00,BKN,,0.00,0.0,WeatherDisplay:10.37,2013-06-08 03:21:00,
2013-06-07 22:26:00,59.8,55.0,29.93,East,99,0.0,0.0,84,0.00,BKN,,0.00,0.0,WeatherDisplay:10.37,2013-06-08 03:26:00,
2013-06-07 22:31:00,59.6,55.1,29.93,East,99,0.0,0.0,85,0.00,BKN,,0.00,0.0,WeatherDisplay:10.37,2013-06-08 03:31:00,
2013-06-07 22:36:00,59.5,55.3,29.93,East,99,0.0,0.0,86,0.00,BKN,,0.00,0.0,WeatherDisplay:10.37,2013-06-08 03:36:00,
2013-06-07 22:41:00,59.3,55.1,29.93,East,99,0.0,0.0,86,0.00,BKN,,0.00,0.0,WeatherDisplay:10.37,2013-06-08 03:41:00,
2013-06-07 22:46:00,59.2,55.3,29.93,East,99,0.0,0.0,87,0.00,BKN,,0.00,0.0,WeatherDisplay:10.37,2013-06-08 03:46:00,
2013-06-07 22:51:00,59.0,55.1,29.93,East,99,0.0,0.0,87,0.00,BKN,,0.00,0.0,WeatherDisplay:10.37,2013-06-08 03:51:00,
2013-06-07 22:57:00,59.0,55.1,29.93,East,99,0.0,0.0,87,0.00,BKN,,0.00,0.0,WeatherDisplay:10.37,2013-06-08 03:57:00,
2013-06-07 23:01:00,58.9,55.0,29.93,East,99,0.0,0.0,87,0.00,BKN,,0.00,0.0,WeatherDisplay:10.37,2013-06-08 04:01:00,
2013-06-07 23:02:00,58.9,55.4,29.93,East,99,0.0,0.0,88,0.00,BKN,,0.00,0.0,WeatherDisplay:10.37,2013-06-08 04:02:00,
2013-06-07 23:03:00,58.9,55.4,29.93,East,99,0.0,0.0,88,0.00,BKN,,0.00,0.0,WeatherDisplay:10.37,2013-06-08 04:03:00,
2013-06-07 23:08:00,58.7,55.2,29.93,East,99,0.0,0.0,88,0.00,BKN,,0.00,0.0,WeatherDisplay:10.37,2013-06-08 04:08:00,
2013-06-07 23:13:00,58.6,55.4,29.93,East,99,0.0,0.0,89,0.00,BKN,,0.00,0.0,WeatherDisplay:10.37,2013-06-08 04:13:00,
2013-06-07 23:18:00,58.6,55.7,29.93,East,99,0.0,0.0,90,0.00,BKN,,0.00,0.0,WeatherDisplay:10.37,2013-06-08 04:18:00,
2013-06-07 23:23:00,58.4,55.5,29.93,East,99,0.0,0.0,90,0.00,BKN,,0.00,0.0,WeatherDisplay:10.37,2013-06-08 04:23:00,
2013-06-07 23:28:00,58.4,55.5,29.93,East,99,0.0,0.0,90,0.00,BKN,,0.00,0.0,WeatherDisplay:10.37,2013-06-08 04:28:00,
2013-06-07 23:33:00,58.3,55.7,29.93,East,99,0.0,0.0,91,0.00,BKN,,0.00,0.0,WeatherDisplay:10.37,2013-06-08 04:33:00,
2013-06-07 23:38:00,58.1,55.5,29.93,East,99,0.0,0.0,91,0.00,BKN,,0.00,0.0,WeatherDisplay:10.37,2013-06-08 04:38:00,
2013-06-07 23:43:00,58.0,55.4,29.93,East,99,0.0,0.0,91,0.00,BKN,,0.00,0.0,WeatherDisplay:10.37,2013-06-08 04:43:00,
2013-06-07 23:48:00,58.0,55.4,29.92,East,99,0.0,0.0,91,0.00,BKN,,0.00,0.0,WeatherDisplay:10.37,2013-06-08 04:48:00,
2013-06-07 23:53:00,57.6,55.0,29.92,East,99,0.0,0.0,91,0.00,BKN,,0.00,0.0,WeatherDisplay:10.37,2013-06-08 04:53:00,
2013-06-07 23:58:00,57.5,54.9,29.92,East,99,0.0,0.0,91,0.00,BKN,,0.00,0.0,WeatherDisplay:10.37,2013-06-08 04:58:00,